EW6790 Weather Reports


time (UTC)temp
C
wind
direction
speed
KPH
gust
KPH
rain 1hr
cm
rain 24hr
cm
rain mn
cm
humidity
%
barometer
mb
20260902181544 29 278 4.8 9.7 0.00 3.38 0.00 68 1009.8
20260902180045 28 254 4.8 9.7 0.00 3.38 0.00 69 1009.9
20260902174521 28 256 1.6 8.0 0.00 3.38 0.00 74 1010.1
20260902173017 27 251 3.2 9.7 0.00 3.38 0.00 77 1010.3
20260902171602 28 254 1.6 8.0 0.00 3.38 3.38 74 1010.3
20260902170058 28 208 1.6 9.7 0.00 3.38 3.38 74 1010.1
20260902164541 27 229 3.2 12.9 0.00 3.38 3.38 82 1010.4
20260902163052 26 167 9.7 17.7 0.00 3.38 3.38 83 1010.6
20260902161526 26 204 6.4 17.7 0.00 3.38 3.38 86 1010.5
20260902160021 25 227 6.4 17.7 0.00 3.38 3.38 86 1010.4
20260902154503 24 197 12.9 19.3 0.00 3.38 3.38 66 1010.5
20260902153003 23 206 12.9 17.7 0.00 3.38 3.38 47 1010.5
20260902151551 23 212 8.0 19.3 0.00 3.38 3.38 45 1010.3
20260902150043 22 218 8.0 17.7 0.00 3.38 3.38 44 1009.9
20260902144534 22 232 9.7 16.1 0.00 3.38 3.38 44 1009.8
20260902143025 22 175 9.7 16.1 0.00 3.38 3.38 43 1009.9
20260902141506 21 201 8.0 17.7 0.00 3.38 3.38 43 1010.1
20260902140006 21 203 3.2 8.0 0.00 3.38 3.38 43 1010.1
20260902134602 20 205 6.4 14.5 0.00 3.38 3.38 43 1010.1
20260902133049 20 205 8.0 12.9 0.00 3.38 3.38 42 1009.9
20260902131544 20 165 4.8 12.9 0.00 3.38 3.38 43 1009.7
20260902130033 18 171 4.8 11.3 0.00 3.38 3.38 43 1009.7
20260902124535 19 108 1.6 6.4 0.00 3.38 3.38 43 1009.9
20260902123031 -17 0.0 0.0 0.00 3.38 3.38 1009.9
20260902121530 -17 0.0 0.0 0.00 3.38 3.38 1010.0
20260902120034 -17 0.0 0.0 0.00 3.38 3.38 1009.9
20260902114531 -17 0.0 0.0 0.00 3.38 3.38 1010.3
20260902113026 -17 0.0 0.0 0.00 3.38 3.38 1010.2
20260902111512 -17 0.0 0.0 0.00 3.38 3.38 1010.1
20260902110101 -17 0.0 0.0 0.00 3.38 3.38 1010.0
20260902104538 -17 0.0 0.0 0.00 3.38 3.38 1010.0
20260902103039 -17 0.0 0.0 0.00 3.38 3.38 1009.9
20260902101514 -17 0.0 0.0 0.00 3.38 3.38 1009.9
20260902100008 -17 0.0 0.0 0.00 3.38 3.38 1010.1
20260902094547 19 99 11.3 19.3 0.00 3.38 3.38 44 1010.4
20260902093047 19 117 11.3 19.3 0.00 3.38 3.38 43 1010.8
20260902091556 19 117 9.7 14.5 0.00 3.38 3.38 44 1011.5
20260902090029 19 220 0.0 8.0 0.00 3.38 3.38 44 1012.4
20260902084511 19 227 11.3 20.9 0.00 3.38 3.38 43 1012.3
20260902083010 19 148 4.8 12.9 0.00 3.38 3.38 43 1010.6
20260902081551 19 118 11.3 16.1 0.00 3.38 3.38 44 1009.9
20260902080104 19 170 3.2 9.7 0.00 3.38 3.38 44 1010.4
20260902074534 19 95 3.2 12.9 0.00 3.38 3.38 44 1010.2
20260902073033 18 91 8.0 25.7 0.00 3.38 3.38 45 1009.6
20260902071534 18 134 19.3 25.7 0.00 3.38 3.38 45 1009.0
20260902070010 18 120 12.9 16.1 0.03 3.38 3.38 45 1009.4
20260902064617 18 85 6.4 14.5 0.51 3.38 3.38 45 1010.4
20260902063051 18 61 11.3 22.5 2.01 3.38 3.38 46 1010.6
20260902061603 18 60 6.4 11.3 2.77 3.38 3.38 46 1010.7
20260902060033 18 56 1.6 8.0 3.23 3.35 3.35 47 1011.4
20260902054535 19 48 0.0 24.1 2.72 2.74 2.74 49 1012.7
20260902053006 20 295 12.9 53.1 1.30 1.32 1.32 49 1013.0
20260902051502 20 340 4.8 20.9 0.48 0.51 0.51 62 1011.7
20260902050045 22 50 1.6 9.7 0.10 0.13 0.13 73 1011.0
20260902044540 22 341 3.2 11.3 0.00 0.03 0.03 80 1010.2
20260902043017 22 169 0.0 9.7 0.03 0.03 0.03 86 1010.1
20260902041530 24 302 6.4 48.3 0.03 0.03 0.03 85 1011.0
20260902040100 22 209 6.4 14.5 0.03 0.03 0.03 86 1010.2
20260902034558 22 63 6.4 11.3 0.03 0.03 0.03 85 1009.9
20260902033038 22 360 0.0 11.3 0.00 0.00 0.00 87 1010.3
20260902031536 22 60 3.2 9.7 0.00 0.00 0.00 86 1010.1
20260902030020 22 72 0.0 3.2 0.00 0.00 0.00 84 1010.4
20260902024517 22 71 0.0 8.0 0.00 0.00 0.00 82 1010.4
20260902023105 22 77 6.4 9.7 0.00 0.00 0.00 81 1010.3
20260902021603 22 80 6.4 8.0 0.00 0.00 0.00 85 1010.0
20260902020040 22 67 6.4 11.3 0.00 0.00 0.00 85 1010.1
20260902014543 23 70 6.4 8.0 0.00 0.00 0.00 84 1010.2
20260902013018 23 78 6.4 9.7 0.00 0.00 0.00 84 1010.1
20260902011522 24 80 8.0 9.7 0.00 0.00 0.00 83 1010.1
20260902010118 24 64 6.4 11.3 0.00 0.00 0.00 83 1010.2
20260902004556 25 69 0.0 8.0 0.00 0.00 0.00 86 1010.2
20260902003035 25 66 3.2 6.4 0.00 0.00 0.00 86 1010.0
20260902001532 25 78 4.8 8.0 0.00 0.00 0.00 84 1010.1
20260902000020 25 70 6.4 9.7 0.00 0.00 0.00 84 1010.2
20260901234509 26 59 4.8 8.0 0.00 0.00 0.00 83 1010.3
20260901233059 26 72 4.8 8.0 0.00 0.00 0.00 84 1010.3
20260901231555 26 71 6.4 8.0 0.00 0.00 0.00 82 1010.3
20260901230034 26 61 1.6 6.4 0.00 0.00 0.00 82 1010.3
20260901224539 27 86 4.8 8.0 0.00 0.00 0.00 82 1010.3
20260901223040 27 74 4.8 9.7 0.00 0.00 0.00 80 1010.2
20260901221514 27 75 6.4 9.7 0.00 0.00 0.00 82 1010.3
20260901220013 27 94 6.4 9.7 0.00 0.00 0.00 81 1010.4
20260901214513 27 59 4.8 9.7 0.00 0.00 0.00 82 1010.4
20260901213010 27 80 1.6 8.0 0.00 0.00 0.00 78 1010.7
20260901211517 28 107 4.8 12.9 0.00 0.00 0.00 75 1010.6
20260901210006 28 94 4.8 9.7 0.00 0.00 0.00 81 1010.5
20260901204505 28 103 1.6 8.0 0.00 0.00 0.00 77 1010.9
20260901203045 28 85 4.8 11.3 0.00 0.00 0.00 71 1010.8
20260901201543 29 87 8.0 12.9 0.00 0.00 0.00 70 1010.5
20260901200039 29 88 6.4 11.3 0.00 0.00 0.00 75 1010.6
20260901194522 29 95 3.2 8.0 0.00 0.00 0.00 76 1010.8
20260901193004 29 77 4.8 8.0 0.00 0.00 0.00 76 1010.8
20260901191503 30 104 1.6 4.8 0.00 0.00 0.00 69 1011.1
20260901190101 30 140 0.0 6.4 0.00 0.00 0.00 71 1011.5
20260901184546 30 88 4.8 11.3 0.00 0.00 0.00 67 1011.3
20260901183045 30 117 1.6 11.3 0.00 0.00 0.00 68 1011.3